Content
SEND FEEDBACK

Daily
Averages
Monthly
Summary
United States of America

HOUSTON, TEXAS


Home > North America > United States > Texas
Elevation: 96 feet     Latitude: 29 58N     Longitude: 095 21W

WEATHER
 
SELECT A DAY
Number of Records: 204,221;   Date Range: 1/1/95 - 8/12/14
 
SHARE

PRINT THIS DATA

[ ← Previous Day ]
WEATHER ALMANAC - JANUARY 31, 2013
[ Next Day → ]
[ °C ]   °F
Weather ElementAverageHighLow
Temperature50.7 °F66 °F (2:53 pm)32 °F (6:53 am)
Dewpoint29.1 °F36 °F (8:53 am)21.9 °F (11:53 am)
Humidity53.1 %100 % (7:53 am)19 % (2:53 pm)
Barometer30.26 in30.32 in (9:53 am)30.22 in (2:53 am)
Wind Speed5.3 mph11.5 mph (10:53 am)
Wind Gust19.6 mph (11:53 am)
Weather ElementAverage
Visibility10 mi
Wind DirectionSSE (146.4 °)

Weather ElementTotal
Precipitation---
Heating Degree Days16 (Base 65)
Averaged from 22 records on January 31, 2013
WEATHER CONDITIONS BREAKOUT
WIND DIRECTION BREAKOUT
WEATHER BY HOUR - JANUARY 31, 2013
[ °C ]   °F
Local TimeTemperatureDewpointHumidityBarometerVisibilityWind DirectionWind SpeedGust SpeedPrecipitationEventsConditions
1:53 AM35.1 °F34.0 °F96 %30.23 in10.0 miCalmClear
2:53 AM35.1 °F33.1 °F92 %30.22 in10.0 miCalmClear
3:53 AM34.0 °F32.0 °F92 %30.22 in10.0 miCalmClear
4:53 AM33.1 °F32.0 °F96 %30.22 in10.0 miCalmClear
5:53 AM33.1 °F32.0 °F96 %30.23 in10.0 miCalmClear
6:53 AM32.0 °F30.9 °F96 %30.25 in10.0 miCalmClear
7:53 AM35.1 °F35.1 °F100 %30.29 in10.0 miCalmClear
8:53 AM46.0 °F36.0 °F68 %30.31 in10.0 miSSW (210°)3.5 mphClear
9:53 AM55.0 °F30.9 °F40 %30.32 in10.0 miSSW (200°)8.1 mphClear
10:53 AM59.0 °F26.1 °F28 %30.32 in10.0 miSSW (210°)11.5 mphClear
11:53 AM62.1 °F21.9 °F21 %30.31 in10.0 miWSW (240°)11.5 mph19.6 mphClear
12:53 PM64.0 °F25.0 °F23 %30.28 in10.0 miSW (220°)11.5 mphClear
1:53 PM64.9 °F25.0 °F22 %30.25 in10.0 miWSW (240°)9.2 mphClear
2:53 PM66.0 °F21.9 °F19 %30.23 in10.0 miSW (220°)11.5 mphClear
3:53 PM66.0 °F21.9 °F19 %30.22 in10.0 miWSW (240°)10.4 mphClear
4:53 PM64.9 °F21.9 °F19 %30.22 in10.0 miSW (230°)9.2 mphClear
5:53 PM61.0 °F23.0 °F23 %30.22 in10.0 miSSW (210°)6.9 mphClear
6:53 PM55.9 °F25.0 °F30 %30.22 in10.0 miSSW (200°)3.5 mphClear
7:53 PM55.0 °F30.0 °F38 %30.27 in10.0 miSSW (210°)6.9 mphClear
9:53 PM54.0 °F34.0 °F47 %30.30 in10.0 miSSW (200°)5.8 mphClear
10:53 PM52.0 °F34.0 °F50 %30.31 in10.0 miSouth (190°)3.5 mphClear
11:53 PM51.1 °F35.1 °F54 %30.30 in10.0 miSSW (200°)3.5 mphClear
Hourly data recorded from KDWH, located miles away from Houston, Texas







STORIES FROM OUR PARTNERS